This is the latest recevied weather packets stored in our database for station/object W4SNA-2. If no packets are shown the sender has not sent any weather packets the latest 10 day(s).
| Time | Temp. | Humidity | Pressure | Rain* | Wind** | Luminosity | Snow |
|---|---|---|---|---|---|---|---|
| 1778245698 | 11.11° C | 57% | 1019 hPa | 0 mm | - | - | - |
| 1778245398 | 11.11° C | 59% | 1019 hPa | 0 mm | - | - | - |
| 1778245105 | 10.56° C | 57% | 1018.9 hPa | 0 mm | - | - | - |
| 1778244798 | 10.56° C | 59% | 1018.9 hPa | 0 mm | - | - | - |
| 1778244499 | 10.56° C | 61% | 1018.8 hPa | 0 mm | - | - | - |
| 1778243770 | 10° C | 60% | 1018.7 hPa | 0 mm | - | - | - |
| 1778243467 | 10° C | 63% | 1018.8 hPa | 0 mm | - | - | - |
| 1778243166 | 9.44° C | 64% | 1018.7 hPa | 0 mm | - | - | - |
| 1778242867 | 9.44° C | 62% | 1018.7 hPa | 0 mm | - | - | - |
| 1778242568 | 9.44° C | 63% | 1018.7 hPa | 0 mm | - | - | - |
| 1778241817 | 9.44° C | 66% | 1018.6 hPa | 0 mm | - | - | - |
| 1778241516 | 8.89° C | 65% | 1018.4 hPa | 0 mm | - | - | - |
| 1778240398 | 8.33° C | 67% | 1018.2 hPa | 0 mm | - | - | - |
| 1778240098 | 8.33° C | 70% | 1018.1 hPa | 0 mm | - | - | - |
| 1778239798 | 8.33° C | 68% | 1018.1 hPa | 0 mm | - | - | - |
| 1778239498 | 7.78° C | 67% | 1018 hPa | 0 mm | - | - | - |
| 1778239198 | 7.78° C | 69% | 1018 hPa | 0 mm | - | - | - |
| 1778238899 | 7.78° C | 68% | 1017.8 hPa | 0 mm | - | - | - |
| 1778238598 | 7.78° C | 68% | 1017.7 hPa | 0 mm | - | - | - |
| 1778238298 | 7.78° C | 67% | 1017.6 hPa | 0 mm | - | - | - |
| 1778237998 | 7.78° C | 67% | 1017.5 hPa | 0 mm | - | - | - |
| 1778237698 | 7.78° C | 67% | 1017.5 hPa | 0 mm | - | - | - |
| 1778237398 | 7.78° C | 67% | 1017.4 hPa | 0 mm | - | - | - |
| 1778237098 | 7.22° C | 67% | 1017.3 hPa | 0 mm | - | - | - |
| 1778236798 | 7.22° C | 67% | 1017.2 hPa | 0 mm | - | - | - |
* Rain latest hour (hover to see other rain measurements)
** Current wind speed in m/s (hover to see current wind gust speed)